Newark Heath, OH

3:37 AM EDT on July 27, 2017 (GMT -0400)
Newark Heath

Weather History for KVTA - August, 2013

Change the Weather History Date:

Thursday, August 8, 2013

  Actual Average Record
Temperature  
Mean Temperature 76 °F -  
Max Temperature 82 °F 83 °F 95 °F (1941)
Min Temperature 69 °F 60 °F 47 °F (1975)
Cooling Degree Days 10    
Growing Degree Days 26 (Base 50)    
Moisture  
Dew Point 71 °F    
Average Humidity 89    
Maximum Humidity 100    
Minimum Humidity 74    
Precipitation  
Precipitation 0.23 in - - ()
Sea Level Pressure  
Sea Level Pressure 29.93 in    
Wind  
Wind Speed 2 mph (SW)    
Max Wind Speed 8 mph    
Max Gust Speed -    
Visibility 6 miles    
Events Rain , Thunderstorm    
Averages and records for this station are not official NWS values.
T = Trace of Precipitation, MM = Missing Value Source: NWS Daily Summary

Daily Weather History Graph

Daily Weather History Graph

Search for Another Location

Airport or City:

Trip Planner

Search our weather history database for the weather conditions in past years. The results will help you decide how hot, cold, wet, or windy it might be!

Date:

Astronomy

Aug. 08, 2013 Rise Set
Actual Time 6:34 AM EDT 8:35 PM EDT
Civil Twilight 6:05 AM EDT 9:04 PM EDT
Nautical Twilight 5:29 AM EDT 9:40 PM EDT
Astronomical Twilight 4:49 AM EDT 10:19 PM EDT
Moon 8:20 AM EDT (8/8) 9:13 PM EDT (8/8)
Length of Visible Light 14h 59m
Length of Day
14h 00m
Waxing Crescent, 3% of the Moon is Illuminated
Aug 8
Waxing Crescent
Aug 14
First Quarter
Aug 20
Full
Aug 28
Last Quarter
Sep 5
New

Hourly Weather History & Observations

Time (EDT) Temp. Heat Index Dew Point Humidity Pressure Visibility Wind Dir Wind Speed Gust Speed Precip Events Conditions
12:54 AM 73.0 °F - 70.0 °F 90% 29.94 in 10.0 mi Calm Calm - N/A   Mostly Cloudy
1:54 AM 72.0 °F - 70.0 °F 93% 29.93 in 8.0 mi Calm Calm - N/A   Scattered Clouds
2:54 AM 71.1 °F - 69.1 °F 93% 29.92 in 8.0 mi Calm Calm - N/A   Scattered Clouds
3:54 AM 71.1 °F - 69.1 °F 93% 29.92 in 5.0 mi Calm Calm - N/A   Partly Cloudy
4:54 AM 70.0 °F - 68.0 °F 93% 29.92 in 3.0 mi Calm Calm - N/A   Clear
4:57 AM 69.8 °F - 68.0 °F 94% 29.94 in 1.8 mi Calm Calm - N/A   Clear
5:00 AM 69.8 °F - 68.0 °F 94% 29.94 in 0.8 mi Calm Calm - N/A   Mist
5:14 AM 69.8 °F - 68.0 °F 94% 29.94 in 1.5 mi Calm Calm - N/A   Mostly Cloudy
5:37 AM 69.8 °F - 69.8 °F 100% 29.94 in 3.0 mi Calm Calm - N/A   Overcast
5:54 AM 70.0 °F - 69.1 °F 97% 29.92 in 5.0 mi Calm Calm - N/A   Overcast
6:54 AM 72.0 °F - 70.0 °F 93% 29.92 in 7.0 mi Calm Calm - N/A   Overcast
7:54 AM 73.9 °F - 71.1 °F 91% 29.93 in 10.0 mi Calm Calm - N/A   Overcast
8:54 AM 75.0 °F - 72.0 °F 90% 29.93 in 7.0 mi SSE 3.5 mph - N/A   Overcast
9:07 AM 75.2 °F - 73.4 °F 94% 29.95 in 7.0 mi South 4.6 mph - N/A   Overcast
9:54 AM 78.1 °F - 73.0 °F 84% 29.94 in 9.0 mi Calm Calm - N/A   Overcast
10:54 AM 77.0 °F - 72.0 °F 84% 29.95 in 7.0 mi SSW 6.9 mph - N/A   Overcast
11:54 AM 81.0 °F 85.8 °F 73.0 °F 77% 29.96 in 8.0 mi South 6.9 mph - N/A   Mostly Cloudy
12:02 PM 80.6 °F 84.6 °F 71.6 °F 74% 29.98 in 9.0 mi South 6.9 mph - N/A   Mostly Cloudy
12:54 PM 80.1 °F 84.2 °F 73.0 °F 79% 29.94 in 8.0 mi South 6.9 mph - N/A   Mostly Cloudy
1:44 PM 80.6 °F 84.6 °F 71.6 °F 74% 29.96 in 9.0 mi SSW 8.1 mph - N/A   Overcast
1:54 PM 80.1 °F 83.8 °F 72.0 °F 76% 29.94 in 8.0 mi SW 5.8 mph - N/A   Overcast
2:07 PM 80.6 °F 84.6 °F 71.6 °F 74% 29.95 in 9.0 mi SW 8.1 mph - N/A   Overcast
2:54 PM 82.0 °F 87.4 °F 73.0 °F 74% 29.91 in 9.0 mi SSW 8.1 mph - N/A   Partly Cloudy
3:54 PM 80.1 °F 83.6 °F 71.1 °F 74% 29.91 in 8.0 mi SSW 5.8 mph - N/A   Clear
4:44 PM 78.8 °F - 73.4 °F 83% 29.92 in 7.0 mi Calm Calm - N/A Thunderstorm Clear
4:54 PM 79.0 °F - 73.0 °F 82% 29.91 in 6.0 mi Calm Calm - N/A Thunderstorm Haze
5:33 PM 77.0 °F - 73.4 °F 89% 29.92 in 5.0 mi North 4.6 mph - 0.01 in Rain Light Rain
5:54 PM 77.0 °F - 73.9 °F 90% 29.90 in 3.0 mi NW 3.5 mph - 0.04 in Rain , Thunderstorm Light Rain
6:27 PM 75.2 °F - 73.4 °F 94% 29.94 in 3.0 mi WNW 3.5 mph - 0.03 in Rain Light Rain
6:35 PM 75.2 °F - 73.4 °F 94% 29.94 in 2.0 mi WSW 3.5 mph - 0.04 in Rain Light Rain
6:39 PM 75.2 °F - 73.4 °F 94% 29.94 in 1.8 mi SW 8.1 mph - 0.06 in Rain Rain
6:54 PM 75.0 °F - 73.0 °F 94% 29.92 in 2.0 mi West 6.9 mph - 0.11 in Rain Rain
7:07 PM 73.4 °F - 71.6 °F 94% 29.94 in 2.5 mi WSW 5.8 mph - 0.04 in Rain Rain
7:13 PM 73.4 °F - 71.6 °F 94% 29.94 in 3.0 mi West 4.6 mph - 0.05 in Rain Rain
7:54 PM 73.0 °F - 70.0 °F 90% 29.91 in 10.0 mi Calm Calm - 0.07 in Rain Light Rain
8:54 PM 73.0 °F - 71.1 °F 93% 29.90 in 8.0 mi Calm Calm - 0.01 in   Mostly Cloudy
9:54 PM 71.1 °F - 70.0 °F 96% 29.92 in 5.0 mi Calm Calm - N/A   Partly Cloudy
10:52 PM 71.6 °F - 69.8 °F 94% 29.95 in 2.0 mi Calm Calm - 0.00 in   Mostly Cloudy
10:54 PM 71.1 °F - 70.0 °F 96% 29.93 in 2.0 mi Calm Calm - 0.00 in   Mostly Cloudy
11:02 PM 71.6 °F - 69.8 °F 94% 29.94 in 4.0 mi Calm Calm - N/A   Mostly Cloudy
11:54 PM 70.0 °F - 69.1 °F 97% 29.92 in 4.0 mi Calm Calm - N/A   Scattered Clouds